Wind_Speed
32 33 34 35 37 38 39 40 42 43 44 45 46 47 47 48 50 51 52 52 53 53 54 54 55 56 57 58 59 60 62 64 64 64 66 68 70 71 73 74 76 77 77
33 34 36 37 38 39 40 42 43 44 44 45 46 47 48 50 51 52 53 53 53 54 54 55 56 57 58 60 62 63 65 66 67 67 68 71 73 76 77 78 79 79 80
34 36 37 38 39 40 42 42 43 44 45 46 47 48 50 51 52 53 53 53 54 54 55 56 58 59 61 63 65 66 67 68 70 72 72 75 77 78 79 80 80 80 81
36 37 37 38 39 40 41 42 43 45 46 47 48 50 51 52 53 53 53 54 55 56 57 59 61 62 64 66 67 68 70 72 74 75 76 77 78 79 81 80 80 80 79
37 37 37 39 39 41 42 43 44 45 47 48 49 51 52 52 53 54 54 55 56 58 59 62 63 65 66 68 70 71 73 75 76 77 78 79 79 80 79 78 77 75 73
36 37 38 39 40 41 42 44 45 47 48 49 50 51 52 53 54 55 56 57 59 60 62 64 66 67 68 70 72 74 76 77 79 80 80 80 79 77 75 73 72 69 65
36 37 38 40 41 42 44 45 46 48 49 50 51 52 52 54 55 56 58 60 62 64 65 67 68 70 72 73 74 75 77 78 80 81 80 78 75 72 70 68 65 62 57
37 38 39 40 42 43 45 46 48 49 50 50 51 52 53 55 57 59 61 63 65 66 68 69 71 72 74 76 76 77 78 78 79 78 76 73 69 67 65 63 59 54 49
37 38 39 41 43 44 46 47 48 49 49 51 52 53 55 57 59 62 64 66 67 68 69 71 73 74 76 77 78 79 78 76 75 73 70 68 65 62 60 56 51 46 41
38 39 41 42 44 45 46 47 48 49 50 51 53 55 57 60 62 64 66 68 69 70 71 73 74 76 77 78 79 78 76 73 71 68 66 63 60 56 53 49 45 40 35
39 40 42 43 44 45 46 47 48 50 51 53 55 57 60 62 64 66 68 70 71 72 73 74 76 77 78 77 77 75 73 70 67 65 61 57 53 50 46 42 38 34 31
40 41 42 44 44 45 46 47 49 51 53 55 57 60 62 64 65 68 70 72 74 75 75 76 77 77 76 75 73 71 69 67 64 60 55 51 47 43 40 36 33 30 28
41 42 43 43 44 45 47 48 50 53 55 57 60 62 64 66 67 69 71 73 75 76 77 78 77 75 73 70 68 67 65 63 59 54 49 45 42 38 35 32 29 27 25
41 41 42 43 45 46 48 50 52 55 57 60 62 64 66 68 70 72 73 74 75 77 78 76 74 71 68 66 65 63 61 57 53 48 44 41 37 34 31 28 26 24 23
40 41 43 44 46 48 49 52 54 57 60 63 65 67 68 70 72 74 75 75 77 78 76 73 69 67 65 63 61 59 56 52 47 44 39 36 33 30 28 26 24 22 22
41 43 44 46 47 49 52 54 57 60 62 65 67 69 71 72 73 74 75 76 77 76 73 70 67 65 64 61 58 55 51 47 42 39 35 32 29 27 25 24 22 21 21
43 44 46 48 50 52 55 58 60 62 64 67 69 70 72 72 73 74 75 76 75 73 71 68 65 63 60 58 55 51 46 42 37 34 31 28 26 24 23 22 21 20 20
44 46 48 51 53 56 58 61 63 65 66 68 70 71 72 73 74 75 75 75 72 70 67 64 62 60 57 54 51 46 41 36 33 30 27 25 23 22 21 20 20 19 19
47 49 51 53 56 59 61 63 65 67 69 70 71 72 73 74 75 75 74 72 69 66 63 60 58 55 52 49 44 40 35 32 29 27 24 23 21 20 20 19 18 18 18
49 51 53 56 58 60 63 65 67 69 71 71 72 73 74 74 73 71 69 67 64 60 58 55 53 50 46 42 38 34 31 28 26 24 22 21 20 19 19 18 17 17 17
51 53 56 58 60 62 65 67 69 71 72 72 73 73 73 71 69 67 65 63 59 56 53 51 48 44 40 37 33 30 27 25 24 22 21 20 19 19 18 17 17 16 16
53 55 58 60 62 65 67 69 71 72 73 73 73 71 69 68 66 64 62 59 55 52 49 46 42 39 36 33 30 28 25 23 22 21 20 19 19 18 18 17 17 16 16
55 57 59 62 64 67 69 71 72 73 73 73 71 68 66 65 63 61 58 55 51 48 45 42 39 37 34 31 27 25 23 22 21 20 19 18 18 17 17 17 17 16 16
57 59 62 64 67 70 71 72 73 73 72 70 67 65 63 61 59 57 54 50 47 44 41 39 37 34 31 28 25 23 21 20 20 19 18 18 17 17 17 17 17 17 16
59 61 64 67 70 72 72 72 72 72 69 67 64 61 59 57 56 53 49 46 43 40 38 36 33 30 28 26 23 21 20 20 19 19 18 18 18 17 17 17 17 17 16
61 65 68 70 71 71 71 71 71 69 66 62 59 57 55 53 51 48 44 42 39 37 35 32 29 28 26 23 22 21 21 20 19 19 18 18 18 18 18 18 17 17 17
Wind_Direction
271 274 276 278 280 283 285 287 288 290 292 293 294 296 297 298 298 299 299 300 300 300 300 300 300 300 300 300 299 299 299 299 298 298 297 296 296 295 294 294 293 291 290
272 274 277 279 281 283 285 287 289 291 293 294 296 296 297 298 299 299 300 300 300 300 301 301 301 301 301 301 300 300 300 299 299 299 298 297 297 296 295 295 294 293 292
273 276 278 280 282 283 286 288 290 292 293 295 296 296 297 298 299 300 301 301 301 301 302 302 302 302 302 302 301 301 300 300 300 299 299 298 298 297 296 295 295 294 293
276 278 279 281 283 286 288 290 291 293 294 295 296 297 298 299 300 301 301 302 302 302 302 303 303 303 303 302 302 301 301 301 301 300 300 300 299 298 297 296 295 295 294
277 280 281 283 285 287 289 290 292 293 295 296 297 298 299 300 301 301 302 302 302 303 303 303 303 303 304 303 302 302 302 302 301 301 301 301 300 299 298 297 296 296 295
280 282 284 286 287 288 290 291 293 294 296 297 298 299 300 301 301 302 302 302 303 303 303 303 304 304 303 303 303 303 303 303 302 302 302 302 301 300 299 299 298 298 296
282 284 285 286 288 290 291 293 294 295 296 297 298 299 300 301 302 302 303 303 303 304 304 304 304 304 304 303 304 304 303 304 303 303 303 303 302 301 301 300 300 299 297
282 284 285 287 289 291 292 294 295 296 297 298 299 300 301 301 302 302 303 303 304 304 305 305 305 305 305 304 304 304 304 304 303 303 304 304 303 302 302 301 300 298 295
283 284 286 288 290 291 293 294 295 296 297 298 299 300 301 302 302 303 303 304 305 305 305 306 306 305 305 304 305 305 305 304 303 303 304 303 302 302 302 301 299 297 294
284 285 287 289 291 292 293 294 295 296 298 299 300 301 302 302 303 304 304 305 305 306 306 306 306 306 306 306 305 305 305 305 304 304 303 302 301 301 300 299 298 295 292
285 287 289 290 292 293 294 295 296 297 299 300 301 302 303 304 304 304 305 305 306 306 306 307 307 307 307 306 306 306 306 305 305 304 303 302 300 299 298 297 295 292 291
287 289 290 291 293 294 295 296 297 299 300 301 302 303 304 304 305 305 305 306 306 307 307 307 307 307 307 306 306 306 306 306 305 304 303 301 299 298 296 294 291 289 289
289 290 292 293 294 295 296 298 299 300 301 302 303 304 305 305 305 305 306 306 306 307 308 308 308 308 307 307 307 307 307 306 305 303 302 300 298 296 293 291 288 286 286
291 292 293 294 296 297 298 299 301 302 303 304 304 305 305 306 306 306 306 307 307 308 308 309 308 308 307 307 307 307 307 305 304 302 300 298 296 293 290 287 285 283 284
292 293 294 296 297 299 300 301 302 303 304 305 306 306 306 306 307 307 307 308 308 309 309 309 308 308 307 307 307 307 306 304 302 300 298 296 293 290 287 285 282 281 282
293 295 296 297 299 300 301 302 304 305 306 306 306 306 307 307 307 308 308 309 310 310 309 309 308 308 308 307 307 307 305 302 300 298 295 293 290 287 285 282 279 279 281
295 296 298 299 300 301 302 303 304 305 306 307 307 307 307 307 308 308 309 309 310 310 309 308 308 308 307 307 307 305 303 300 297 295 292 290 287 284 283 280 277 277 279
297 298 300 300 301 302 303 304 305 306 307 307 307 307 307 308 309 309 309 310 310 309 309 308 308 307 307 307 306 304 300 297 294 292 290 287 284 282 281 278 275 275 276
299 300 301 302 303 304 304 305 306 307 308 308 308 308 308 309 309 310 310 310 310 309 309 309 308 308 307 306 304 302 298 294 292 289 286 283 280 279 278 277 274 273 272
300 301 303 304 305 305 306 307 307 308 309 309 309 308 308 309 310 311 311 311 311 310 309 309 309 309 307 306 303 300 296 293 290 286 282 280 278 276 275 273 272 271 269
301 303 304 306 306 307 308 308 308 309 309 309 309 309 309 310 311 311 312 311 311 310 309 309 309 309 307 305 302 298 294 290 288 283 279 277 274 272 271 269 269 268 267
303 304 306 307 308 308 309 309 309 310 309 309 309 309 309 310 311 311 311 311 310 309 309 309 308 308 307 304 301 297 292 287 284 280 277 276 272 268 268 267 266 265 264
304 305 306 308 309 309 310 310 310 310 310 310 309 309 309 310 310 310 310 310 309 308 308 308 307 306 305 302 299 295 289 285 281 277 274 274 270 267 266 266 265 264 262
305 306 307 309 309 310 311 311 311 311 310 310 309 309 309 310 310 310 310 309 308 307 306 306 306 305 303 300 296 292 287 283 278 275 272 271 268 265 264 265 264 262 260
306 307 309 309 310 310 311 311 311 311 311 310 309 309 310 310 310 310 309 308 307 306 305 305 304 303 301 298 294 289 285 282 279 275 271 268 264 263 263 264 263 261 258
307 308 309 310 310 310 311 311 312 311 311 310 310 310 310 310 310 309 308 308 307 306 305 303 302 301 299 295 291 288 285 282 278 274 269 265 261 260 262 261 260 258 256
Height
5725 5724 5723 5721 5719 5717 5714 5711 5708 5704 5701 5697 5693 5689 5684 5680 5675 5670 5665 5659 5654 5649 5643 5638 5632 5626 5620 5614 5608 5602 5596 5590 5586 5582 5574 5566 5559 5552 5546 5540 5533 5527 5522
5717 5715 5714 5712 5710 5707 5704 5701 5697 5694 5690 5686 5682 5677 5673 5668 5663 5658 5653 5647 5642 5636 5630 5624 5618 5612 5606 5599 5593 5586 5579 5572 5566 5563 5557 5548 5540 5531 5524 5517 5510 5503 5496
5708 5706 5705 5702 5700 5697 5694 5691 5687 5683 5679 5675 5671 5666 5661 5656 5651 5646 5640 5634 5629 5623 5617 5611 5604 5598 5591 5584 5577 5570 5562 5555 5547 5541 5536 5528 5519 5510 5502 5495 5487 5479 5472
5699 5697 5695 5692 5689 5687 5683 5680 5676 5672 5668 5664 5659 5654 5649 5644 5638 5633 5627 5622 5616 5610 5603 5597 5590 5583 5575 5568 5560 5552 5544 5536 5528 5520 5514 5507 5498 5488 5478 5471 5464 5456 5448
5689 5687 5685 5682 5679 5676 5673 5669 5665 5661 5657 5652 5647 5642 5637 5631 5626 5620 5615 5609 5603 5596 5589 5582 5575 5567 5559 5550 5542 5534 5525 5516 5508 5499 5492 5484 5476 5465 5455 5446 5440 5433 5426
5679 5677 5674 5672 5669 5666 5662 5658 5654 5650 5645 5640 5635 5630 5624 5619 5613 5607 5601 5595 5589 5582 5575 5567 5559 5551 5542 5534 5525 5515 5505 5495 5486 5477 5469 5461 5452 5442 5433 5425 5417 5411 5406
5669 5667 5664 5661 5658 5655 5651 5647 5643 5638 5633 5628 5623 5617 5612 5606 5600 5593 5587 5580 5574 5566 5558 5550 5542 5533 5524 5515 5506 5497 5486 5474 5464 5454 5446 5438 5429 5421 5412 5405 5397 5391 5385
5659 5657 5654 5651 5647 5644 5640 5636 5631 5626 5621 5616 5610 5605 5599 5593 5586 5579 5572 5565 5558 5550 5542 5533 5524 5515 5504 5494 5486 5477 5467 5456 5444 5433 5425 5417 5409 5400 5392 5386 5379 5374 5370
5649 5646 5643 5640 5636 5632 5628 5624 5619 5614 5609 5604 5598 5592 5586 5579 5571 5564 5556 5549 5542 5534 5525 5515 5505 5496 5486 5474 5465 5457 5448 5437 5425 5415 5406 5398 5391 5383 5375 5369 5364 5360 5357
5638 5635 5632 5629 5625 5621 5617 5612 5607 5602 5596 5591 5585 5578 5571 5564 5556 5548 5539 5532 5526 5518 5508 5498 5487 5476 5465 5454 5443 5434 5425 5416 5407 5398 5390 5382 5374 5368 5361 5355 5351 5348 5345
5627 5624 5621 5617 5613 5609 5604 5600 5595 5589 5584 5578 5572 5565 5557 5549 5541 5532 5523 5514 5506 5498 5489 5480 5469 5457 5446 5434 5423 5413 5404 5396 5388 5380 5373 5366 5360 5354 5349 5344 5340 5338 5336
5616 5613 5610 5606 5602 5597 5592 5587 5582 5576 5570 5564 5557 5550 5541 5533 5525 5515 5506 5496 5486 5478 5470 5460 5449 5438 5426 5415 5404 5394 5385 5377 5370 5363 5357 5351 5346 5341 5337 5334 5331 5329 5327
5605 5602 5598 5594 5589 5584 5580 5574 5568 5562 5556 5549 5542 5534 5526 5517 5508 5499 5489 5479 5468 5458 5449 5440 5429 5418 5407 5397 5387 5377 5368 5360 5354 5348 5342 5338 5333 5330 5327 5324 5322 5321 5319
5594 5590 5586 5582 5577 5572 5567 5561 5555 5548 5541 5534 5526 5518 5510 5501 5491 5481 5471 5461 5451 5440 5430 5421 5410 5400 5389 5380 5371 5362 5353 5345 5339 5334 5329 5326 5322 5319 5317 5315 5314 5313 5312
5582 5578 5574 5569 5564 5559 5554 5547 5541 5534 5525 5518 5509 5501 5492 5484 5473 5462 5451 5442 5431 5421 5410 5401 5392 5383 5374 5365 5356 5347 5339 5332 5326 5322 5318 5315 5312 5310 5308 5307 5306 5306 5305
5570 5566 5561 5557 5551 5546 5540 5534 5526 5519 5510 5501 5491 5482 5474 5464 5454 5444 5433 5422 5411 5400 5390 5382 5374 5365 5356 5348 5340 5333 5325 5319 5314 5310 5308 5305 5303 5302 5301 5300 5299 5299 5298
5558 5553 5549 5544 5538 5532 5525 5519 5512 5504 5495 5485 5475 5465 5455 5445 5436 5425 5414 5404 5393 5382 5372 5364 5356 5348 5340 5332 5325 5318 5312 5307 5303 5300 5298 5296 5295 5294 5293 5293 5292 5292 5292
5545 5541 5535 5530 5523 5517 5510 5503 5495 5487 5480 5470 5459 5448 5437 5427 5417 5406 5395 5385 5376 5365 5355 5347 5339 5332 5324 5317 5310 5304 5300 5296 5293 5291 5289 5288 5287 5287 5286 5286 5285 5285 5285
5533 5527 5521 5515 5508 5501 5494 5486 5478 5470 5461 5452 5442 5431 5419 5409 5399 5388 5376 5366 5357 5348 5339 5331 5324 5316 5310 5303 5297 5292 5289 5286 5284 5282 5281 5280 5280 5280 5279 5279 5279 5279 5279
5519 5513 5507 5500 5493 5485 5477 5469 5460 5452 5442 5433 5423 5412 5401 5391 5381 5371 5360 5349 5340 5332 5324 5317 5309 5303 5296 5291 5286 5282 5279 5277 5275 5274 5273 5273 5273 5273 5273 5273 5273 5273 5273
5506 5499 5492 5485 5477 5469 5460 5452 5443 5433 5424 5414 5404 5394 5382 5372 5363 5354 5344 5334 5325 5318 5310 5304 5297 5291 5285 5280 5276 5273 5271 5269 5267 5267 5266 5266 5266 5266 5266 5267 5267 5267 5268
5492 5485 5478 5470 5462 5453 5444 5434 5425 5415 5405 5395 5386 5376 5365 5355 5346 5337 5329 5320 5311 5304 5298 5291 5286 5280 5275 5271 5268 5265 5263 5261 5260 5260 5259 5259 5259 5260 5260 5261 5261 5262 5262
5477 5470 5463 5454 5446 5437 5427 5417 5407 5397 5387 5376 5367 5358 5348 5339 5330 5322 5314 5306 5298 5292 5286 5280 5276 5271 5266 5262 5259 5257 5255 5254 5253 5253 5253 5253 5253 5254 5254 5255 5255 5256 5257
5462 5455 5447 5439 5429 5420 5410 5400 5389 5379 5368 5358 5349 5340 5331 5322 5314 5306 5299 5292 5286 5280 5275 5270 5266 5262 5258 5254 5252 5250 5248 5247 5246 5246 5246 5247 5247 5247 5248 5249 5249 5250 5251
5447 5439 5431 5422 5412 5402 5392 5382 5371 5361 5350 5341 5332 5323 5315 5307 5299 5292 5285 5279 5273 5268 5264 5260 5256 5252 5249 5246 5244 5242 5241 5240 5240 5239 5240 5240 5241 5241 5242 5242 5243 5244 5245
5431 5423 5414 5404 5394 5384 5374 5364 5354 5343 5333 5324 5316 5308 5300 5293 5286 5279 5273 5267 5262 5258 5254 5250 5247 5244 5241 5239 5237 5235 5234 5233 5233 5233 5233 5234 5234 5235 5235 5236 5237 5238 5239